Location: Altmatt
(47.1333°N, 8.7000°E)
Time: 02:54:18
(UTC+00:00)

Cosmos 1943 - Pass Details

Date: 13 July 2020
Orbit: 835 x 848 km, 71.0° (Epoch: 04 August)

Event Time Altitude Azimuth Distance (km) Brightness Sun altitude
Exits shadow 22:38:06 38° 182° (S) 1,261 3.6 -20.2°
Maximum altitude 22:40:14 68° 113° (ESE) 908 3.2 -20.3°
Drops below altitude 10° 22:45:51 10° 31° (NNE) 2,469 6.3 -20.5°
Sets 22:48:19 0° 29° (NNE) 3,405 7.1 -20.5°
